Location: Passau
(48.5830°N, 13.4830°E)
Time: 21:18:58
(UTC+02:00)

Envisat - Pass Details

Date: 24 April 2024
Orbit: 762 x 764 km, 98.3° (Epoch: 29 May)

Event Time Altitude Azimuth Distance (km) Brightness Sun altitude
Rises 03:26:04 0° 25° (NNE) 3,239 7.7 -20.9°
Reaches altitude 10° 03:28:53 10° 40° (NE) 2,308 6.7 -20.6°
Maximum altitude 03:32:50 22° 92° (E) 1,608 5.1 -20.2°
Drops below altitude 10° 03:36:45 10° 143° (SE) 2,293 5.3 -19.8°
Enters shadow 03:38:17 - 152° (SSE) 2,782 5.7 -19.6°
